STARLINK-32275 (60360 NORAD) Tracking and Keplerian Element Data

This shows tracking and keplerian element data for the satellite.

Feedback or suggestion? Click here.




ElementValue
Catalog60360
NameSTARLINK-32275
Epoch Orbit1197
Epoch Day286.4414592
Epoch Year2024
RAAN178.8058
Inclination53.1596
Eccentricity0.0001228
Argument of Perigee97.4063
Mean Anonmoly262.7081
Mean Motion15.39627133
Decay Rate-1.036E-05
L11 60360U 24138F 24286.44145920 -.00001036 00000+0 -15905-4 0 9999
L22 60360 53.1596 178.8058 0001228 97.4063 262.7081 15.39627133 11979



Live tracking and technical data element details for STARLINK-32275 (NORAD 60360). STARLINK-32275 can be tracked NOW for your location showing map with azimuth and elevation plus other details from your city location.







IsCatalogInMostPopularTable: catalog: 60360, numindb: 8
Update: records affected: 1



GetName: 60360 STARLINK-32275

Hit Count: updated at: Tue, 03 Dec 2024 03:00:46 GMT